Wind_Speed
12 15 19 19 21 27 29 32 38 40 36 34 36 45 49 47 46 48 45 41 44 40 38 37 43 43 42 47 47 45 44 39 38 34 32 33 35 38 39 38 34 31 30 28
18 20 19 22 25 29 30 33 39 39 34 31 38 46 44 45 46 47 49 46 46 40 42 34 38 42 45 49 45 48 50 46 41 39 40 39 36 38 41 34 30 29 29 26
20 22 24 25 28 31 33 33 35 37 33 30 37 46 48 46 41 48 46 49 43 45 41 40 39 40 38 42 41 47 51 53 50 45 46 47 38 39 38 32 27 25 27 25
22 23 25 24 24 24 31 29 34 36 35 32 29 29 41 47 46 41 46 45 49 42 45 35 46 42 46 45 43 51 49 54 52 48 50 46 35 38 33 31 27 28 24 24
25 23 25 27 28 27 32 28 29 32 36 38 38 32 40 39 48 45 43 42 45 46 51 45 37 41 46 45 48 48 45 48 50 49 47 39 35 36 29 29 31 28 25 24
22 22 23 26 35 29 28 26 28 31 35 28 44 40 45 45 43 42 41 43 41 41 39 48 46 45 48 48 45 46 48 48 48 45 47 39 36 30 27 30 32 27 25 23
21 23 14 15 13 19 19 22 21 21 19 19 42 43 48 34 45 40 39 36 39 44 45 38 42 46 40 40 45 47 43 50 50 50 46 34 38 27 31 32 29 27 24 23
18 22 17 19 19 22 23 26 15 9 15 18 31 19 45 43 43 43 23 23 31 43 34 35 35 36 37 37 35 35 37 43 42 41 39 36 28 27 33 31 29 27 23 22
20 23 26 22 22 17 23 26 29 26 30 22 20 33 35 31 50 43 26 18 16 17 22 27 25 25 29 29 25 28 32 33 35 34 34 26 26 29 28 29 27 24 20 19
19 30 25 27 21 21 24 28 28 12 5 8 17 22 21 25 40 38 32 22 16 18 16 15 17 21 29 33 35 31 32 26 28 29 26 26 25 27 27 23 23 21 20 18
22 23 27 22 21 23 25 25 22 21 18 13 10 17 14 21 33 27 38 25 21 12 14 12 15 22 22 23 24 29 24 28 27 27 28 26 27 25 21 22 22 19 18 17
17 17 26 27 24 23 17 23 20 8 19 20 13 27 20 22 22 22 45 30 24 18 10 6 16 18 18 21 20 26 25 25 24 27 26 26 25 22 22 23 19 17 17 18
21 10 23 19 16 18 28 22 21 18 20 23 18 22 32 14 9 19 24 20 14 16 8 3 10 5 14 19 26 21 22 21 22 25 27 26 24 22 22 20 18 15 17 18
24 19 22 20 26 27 25 26 19 24 18 24 22 30 32 35 24 14 10 15 8 7 2 3 2 4 20 17 17 20 20 23 23 25 25 23 23 21 20 18 15 15 16 18
13 22 19 22 26 27 27 28 28 29 33 27 25 24 28 30 31 19 16 11 3 2 1 2 3 8 25 24 20 21 24 24 25 24 22 22 22 20 18 15 13 13 15 14
14 16 18 26 21 22 25 27 29 27 33 34 27 23 18 12 24 16 15 9 3 2 4 4 2 7 18 26 23 20 26 23 25 24 22 21 19 18 15 12 12 13 12 12
23 19 16 27 18 22 19 6 19 33 27 29 19 16 17 16 16 19 8 6 8 4 8 5 3 6 25 27 26 26 24 23 22 22 20 19 19 16 11 11 11 11 11 11
11 13 19 22 20 12 11 5 15 24 29 23 23 16 16 13 17 14 12 11 10 8 8 9 4 10 22 30 31 29 25 24 22 21 18 18 17 11 11 11 11 10 10 8
7 6 8 6 13 21 27 17 17 20 34 17 20 18 14 15 19 16 10 11 11 12 11 11 3 8 13 30 29 27 24 22 21 19 17 15 13 11 12 11 9 9 8 7
11 12 9 7 5 4 6 10 12 21 28 23 21 14 13 11 12 16 19 16 10 9 9 11 13 13 10 25 30 26 22 21 18 16 15 11 13 11 10 9 9 8 9 9
10 13 16 13 11 11 15 15 21 6 14 31 28 26 30 31 19 19 22 18 24 16 8 18 13 17 13 23 31 29 22 18 17 15 13 14 16 10 9 9 10 9 9 9
13 8 10 6 6 5 12 18 16 18 30 38 37 37 36 37 31 25 30 26 26 24 19 12 2 15 13 24 33 27 23 20 20 16 18 18 14 12 10 10 9 8 8 9
9 12 20 13 19 23 24 25 28 23 40 33 35 31 29 31 31 27 25 34 30 33 19 16 9 13 16 26 33 29 23 25 21 20 21 15 11 13 11 9 8 8 8 8
21 20 28 27 29 24 24 24 29 35 43 37 27 23 29 31 30 27 28 33 31 33 19 16 10 15 19 28 33 27 21 25 22 24 19 15 15 13 10 9 8 7 6 7
25 26 34 30 20 21 22 27 39 42 37 35 25 27 22 27 28 29 30 29 30 27 16 9 13 18 21 32 31 27 21 25 24 23 18 13 15 11 10 9 8 6 5 7
19 26 23 19 23 23 33 38 42 42 35 33 37 24 23 24 25 29 31 32 30 31 27 21 22 21 24 37 30 28 24 27 28 24 16 12 14 14 15 11 8 7 9 8
Wind_Direction
300 285 274 277 270 267 270 268 268 267 270 276 268 259 259 253 249 246 248 248 231 228 243 240 234 237 239 245 252 248 241 247 257 270 280 282 285 289 293 293 281 275 273 277
301 283 288 284 276 271 269 270 269 273 274 277 275 269 259 257 251 247 244 246 239 236 224 236 236 234 239 238 239 250 244 247 256 266 276 285 291 300 304 292 275 272 271 272
294 292 294 287 276 270 266 266 269 274 279 276 272 269 263 255 252 248 245 243 247 226 234 236 229 225 239 240 243 249 247 248 255 264 270 280 291 300 294 284 271 273 274 265
299 296 291 286 278 270 273 270 271 273 277 272 267 274 264 260 255 249 244 241 238 245 222 236 232 231 236 247 252 249 252 253 258 263 269 279 289 295 281 271 264 269 266 260
293 299 297 289 273 274 274 280 275 276 275 275 264 263 263 256 253 252 245 241 238 242 229 231 231 234 240 241 249 252 255 255 256 263 269 278 286 286 269 260 259 266 262 265
288 297 296 283 286 272 272 278 276 277 276 267 263 255 260 252 253 249 247 237 239 236 241 237 235 240 243 247 255 260 256 254 255 260 268 270 279 272 256 252 259 267 269 265
304 304 304 304 304 288 263 268 273 268 261 260 260 251 255 257 249 247 255 241 237 236 237 236 231 240 250 245 247 252 252 257 262 268 269 258 263 254 244 252 262 269 266 263
318 316 318 323 313 303 291 293 276 271 293 302 301 308 255 250 235 236 286 231 237 232 225 223 228 228 235 244 249 247 246 247 255 261 249 238 237 238 240 253 266 266 258 268
299 292 299 302 306 290 291 282 267 253 271 284 267 288 272 253 240 245 239 226 205 191 196 210 222 227 228 228 235 245 249 245 246 243 230 222 228 228 241 253 253 251 259 268
295 299 297 299 292 282 274 282 274 258 276 254 279 255 257 257 250 238 233 244 215 203 196 207 221 229 228 223 222 232 244 242 232 223 215 216 217 227 240 236 238 249 266 270
308 298 298 296 281 293 280 289 258 259 252 277 288 268 313 289 257 238 222 232 203 195 209 214 235 239 243 227 217 224 232 226 219 210 208 209 217 226 226 227 236 251 258 258
308 296 289 292 286 296 290 288 293 246 266 282 265 280 298 308 249 237 218 210 180 169 176 184 245 267 227 208 199 226 216 219 205 203 202 208 216 220 223 229 238 245 250 264
308 292 306 297 285 315 322 303 297 311 281 267 264 277 308 317 333 25 166 155 163 162 157 125 293 272 180 188 211 214 204 201 202 199 202 208 217 221 221 225 232 237 255 270
290 279 271 281 286 294 291 293 282 267 260 271 282 296 303 306 320 6 109 177 156 176 110 300 284 192 154 192 200 199 184 200 195 196 201 209 214 215 218 222 228 246 266 272
277 278 288 285 286 282 277 276 277 273 269 276 283 292 316 316 312 59 61 336 117 153 87 251 324 180 167 176 188 193 182 201 198 202 204 207 209 210 213 219 239 263 267 259
301 288 298 291 289 284 301 282 288 278 284 282 284 290 308 274 316 334 319 309 296 260 260 249 360 187 181 178 174 196 193 205 204 206 207 202 203 206 211 230 256 259 249 245
281 280 294 289 298 307 308 282 298 284 287 310 325 315 306 299 300 297 355 311 295 264 273 270 270 238 177 184 179 190 194 187 196 199 197 195 201 206 219 247 247 235 238 242
321 287 268 276 297 281 284 291 321 283 294 304 310 323 317 295 297 293 280 305 291 260 271 262 236 278 182 190 186 187 190 182 201 193 190 196 204 209 234 233 224 229 228 219
301 315 295 274 269 280 293 284 287 305 283 289 305 301 305 286 256 271 285 262 286 276 260 255 231 265 182 188 196 180 178 177 199 191 193 196 215 226 225 214 215 213 199 205
280 312 283 299 286 282 313 295 273 325 284 295 301 289 320 314 287 240 239 226 197 216 243 245 228 226 187 181 183 166 174 197 186 191 184 180 227 244 214 192 198 188 202 220
271 285 267 264 257 268 277 307 309 277 286 308 295 303 291 293 292 271 231 195 184 192 192 211 194 197 183 178 179 169 183 187 180 181 173 181 216 222 183 190 191 195 218 229
277 275 252 247 250 283 329 308 274 285 300 308 294 286 280 274 271 261 234 222 199 203 201 177 202 209 183 177 175 172 180 178 173 176 185 215 224 202 187 192 192 209 221 228
287 292 289 271 268 291 289 311 319 305 300 299 303 284 273 262 261 251 238 220 214 217 216 168 180 230 210 183 174 172 188 167 176 179 211 220 218 202 191 190 212 226 235 233
288 291 282 286 291 293 306 311 296 301 303 306 300 294 262 258 255 235 228 220 221 218 211 167 195 220 194 186 171 177 192 162 176 201 218 214 215 191 184 196 215 232 238 241
298 295 287 281 299 308 314 309 304 308 306 302 288 293 253 252 240 225 217 215 212 206 158 191 227 227 196 178 177 177 189 164 186 214 223 209 202 175 177 204 209 235 246 239
304 297 300 298 319 324 313 309 315 311 310 301 295 265 256 240 218 211 207 196 187 182 175 200 209 199 193 173 172 182 184 175 199 213 220 202 187 183 194 208 217 227 231 230
Height
3071 3070 3067 3066 3065 3062 3061 3060 3054 3052 3056 3059 3057 3054 3049 3057 3063 3064 3065 3069 3070 3075 3083 3086 3090 3093 3097 3093 3092 3100 3103 3106 3108 3108 3110 3111 3111 3111 3109 3108 3107 3107 3108 3107
3066 3064 3063 3062 3060 3057 3056 3054 3049 3048 3051 3055 3049 3041 3040 3045 3049 3051 3057 3059 3063 3067 3072 3078 3082 3086 3086 3083 3084 3090 3096 3099 3101 3102 3104 3104 3104 3102 3100 3100 3102 3102 3102 3102
3062 3061 3059 3056 3054 3052 3049 3048 3047 3046 3047 3048 3043 3034 3032 3031 3038 3042 3045 3047 3051 3056 3062 3068 3071 3075 3075 3074 3076 3083 3088 3091 3094 3096 3096 3097 3098 3095 3091 3094 3096 3096 3097 3098
3058 3056 3053 3051 3047 3047 3041 3045 3042 3041 3041 3037 3041 3024 3027 3025 3027 3030 3033 3037 3040 3046 3051 3058 3061 3065 3067 3066 3067 3074 3078 3082 3085 3087 3087 3088 3091 3090 3088 3088 3090 3092 3092 3092
3053 3051 3048 3045 3045 3043 3039 3039 3037 3035 3033 3031 3030 3027 3015 3020 3017 3021 3023 3029 3032 3035 3042 3046 3052 3057 3058 3058 3061 3063 3067 3069 3074 3077 3079 3080 3081 3083 3082 3083 3084 3086 3087 3087
3048 3046 3045 3042 3036 3034 3034 3033 3033 3032 3030 3021 3018 3022 3006 3012 3011 3016 3018 3020 3025 3028 3032 3037 3042 3046 3047 3051 3052 3053 3056 3058 3063 3068 3071 3072 3075 3075 3075 3077 3079 3081 3081 3082
3045 3042 3041 3038 3031 3030 3030 3029 3026 3021 3018 3007 3010 3009 2997 3005 3005 3007 3013 3014 3016 3020 3023 3029 3033 3036 3040 3042 3044 3046 3046 3047 3052 3056 3059 3064 3066 3069 3068 3070 3074 3075 3076 3077
3041 3039 3037 3035 3034 3030 3026 3026 3026 3021 3017 3009 3003 2999 2989 2998 2995 2999 3000 3005 3002 3008 3014 3020 3024 3028 3030 3033 3035 3035 3038 3038 3042 3047 3050 3054 3057 3061 3062 3065 3067 3070 3072 3073
3039 3035 3035 3032 3029 3029 3024 3021 3020 3017 3015 3010 3001 2996 2990 2987 2981 2994 2997 3000 2998 3001 3005 3009 3016 3020 3022 3025 3028 3028 3028 3029 3032 3036 3041 3046 3051 3055 3058 3062 3062 3064 3067 3069
3037 3030 3031 3027 3025 3024 3020 3017 3013 3013 3009 3003 2991 2987 2982 2982 2978 2989 2993 2993 2995 2997 3001 3004 3009 3013 3013 3015 3018 3020 3021 3022 3025 3031 3036 3040 3046 3051 3054 3056 3058 3059 3061 3063
3034 3030 3025 3024 3019 3016 3013 3007 3007 3006 3005 2996 2992 2975 2977 2980 2974 2980 2989 2992 2991 2994 2999 3003 3005 3003 3006 3006 3010 3013 3015 3016 3021 3026 3030 3036 3041 3045 3050 3052 3054 3057 3058 3060
3033 3027 3022 3020 3016 3010 3008 3007 3003 3006 2999 2995 2988 2974 2978 2975 2968 2974 2983 2989 2990 2992 2995 2999 2996 2997 2997 3001 3005 3007 3009 3012 3017 3021 3026 3032 3037 3042 3046 3048 3051 3053 3054 3055
3028 3025 3020 3014 3013 3011 3009 3004 3002 2999 2997 2990 2981 2975 2974 2968 2963 2962 2972 2979 2984 2986 2990 2992 2992 2991 2993 2998 2999 3002 3006 3009 3013 3018 3023 3029 3034 3038 3041 3045 3047 3049 3051 3051
3026 3021 3021 3018 3014 3012 3005 3000 2998 2995 2991 2985 2980 2973 2972 2971 2975 2963 2967 2979 2981 2986 2988 2990 2990 2988 2992 2996 2998 3000 3004 3007 3011 3016 3021 3027 3031 3034 3038 3041 3044 3045 3046 3046
3022 3016 3015 3013 3010 3006 3001 2996 2992 2986 2974 2977 2983 2982 2973 2973 2975 2973 2973 2975 2981 2984 2987 2989 2989 2987 2990 2993 2997 3000 3004 3006 3009 3014 3020 3024 3027 3032 3036 3038 3040 3041 3042 3043
3020 3013 3011 3005 3005 3000 2996 2989 2985 2977 2971 2966 2976 2980 2980 2969 2972 2976 2978 2983 2980 2983 2986 2986 2987 2985 2988 2993 2995 3000 3002 3004 3008 3012 3017 3021 3025 3030 3032 3034 3036 3037 3039 3039
3015 3011 3009 2999 2999 2995 2991 2987 2985 2971 2974 2969 2969 2972 2971 2975 2976 2973 2973 2977 2981 2982 2985 2985 2985 2984 2987 2990 2995 2998 3001 3004 3006 3010 3014 3019 3024 3027 3029 3031 3033 3035 3036 3036
3009 3006 3007 2999 2999 2993 2989 2987 2984 2976 2973 2970 2962 2973 2975 2976 2977 2976 2975 2978 2979 2982 2984 2984 2984 2983 2984 2986 2992 2997 3000 3004 3005 3009 3014 3018 3021 3024 3026 3028 3030 3032 3033 3034
3007 3005 3004 2999 2994 2988 2985 2984 2983 2978 2966 2974 2975 2963 2966 2968 2967 2970 2974 2975 2975 2978 2981 2981 2982 2979 2981 2986 2991 2996 3001 3004 3005 3009 3013 3016 3018 3022 3024 3026 3028 3030 3030 3032
3004 3002 3003 2998 2994 2987 2982 2980 2979 2976 2966 2965 2960 2958 2959 2962 2963 2968 2968 2967 2969 2972 2978 2979 2978 2978 2980 2985 2989 2994 3000 3003 3006 3009 3012 3016 3016 3019 3022 3024 3027 3028 3030 3032
3003 2999 2996 2995 2992 2984 2979 2978 2975 2975 2972 2963 2955 2955 2954 2950 2951 2954 2957 2959 2962 2965 2966 2971 2973 2976 2979 2984 2989 2993 2999 3003 3006 3010 3014 3017 3016 3017 3020 3023 3025 3027 3029 3030
2999 2996 2991 2989 2987 2982 2978 2974 2968 2968 2963 2960 2955 2947 2948 2948 2951 2950 2953 2955 2958 2961 2965 2967 2972 2976 2979 2982 2989 2993 2998 3003 3008 3011 3013 3014 3016 3017 3019 3023 3024 3026 3028 3029
2996 2994 2987 2986 2979 2977 2973 2969 2963 2959 2955 2953 2948 2942 2938 2938 2939 2943 2946 2950 2955 2960 2963 2963 2970 2975 2977 2982 2988 2992 2997 3002 3007 3010 3009 3013 3015 3016 3019 3021 3023 3025 3025 3027
2990 2989 2982 2979 2971 2969 2967 2965 2960 2954 2946 2940 2935 2933 2930 2929 2930 2933 2936 2943 2949 2957 2961 2963 2969 2971 2976 2981 2987 2992 2997 3002 3007 3005 3008 3012 3013 3015 3018 3020 3021 3022 3023 3024
2986 2981 2974 2968 2967 2964 2961 2955 2947 2942 2935 2928 2925 2921 2920 2919 2919 2923 2929 2937 2944 2953 2957 2964 2965 2968 2973 2978 2985 2990 2996 3002 3005 3003 3007 3011 3013 3015 3017 3019 3020 3021 3021 3022
2980 2974 2970 2965 2963 2958 2952 2946 2938 2930 2923 2918 2914 2912 2912 2911 2912 2918 2924 2930 2937 2945 2950 2955 2960 2964 2970 2977 2984 2988 2995 3000 3002 3003 3005 3009 3011 3014 3016 3017 3018 3019 3019 3020